Weather History for Saint Simons Island, GA

Change the Weather History Date:

Friday, May 10, 2013

  Actual Average Record
Temperature  
Mean Temperature 73 °F 73 °F  
Max Temperature 81 °F 81 °F 93 °F (2003)
Min Temperature 64 °F 65 °F 49 °F (1967)
Degree Days  
Heating Degree Days 0 0  
Month to date heating degree days 1 2  
Since 1 July heating degree days 1268 1486  
Cooling Degree Days 8 8  
Month to date cooling degree days 41 71  
Year to date cooling degree days 187 214  
Growing Degree Days 22 (Base 50)    
Moisture  
Dew Point 63 °F    
Average Humidity 69    
Maximum Humidity 87    
Minimum Humidity 51    
Precipitation  
Precipitation 0.00 in 0.04 in 1.10 in (1960)
Month to date precipitation 3.23 0.52  
Year to date precipitation 12.25 13.58  
Snow  
Snow 0.00 in - 0.00 in ()
Month to date snowfall 0.0  
Since 1 July snowfall 0.0  
Snow Depth 0.00 in    
Sea Level Pressure  
Sea Level Pressure 30.08 in    
Wind  
Wind Speed 7 mph (South)    
Max Wind Speed 14 mph    
Max Gust Speed 20 mph    
Visibility 10 miles    
Events      
T = Trace of Precipitation, MM = Missing Value Source: NWS Daily Summary

Daily Weather History Graph

Daily Weather History Graph

Search for Another Location

Airport:

Trip Planner

Search our weather history database for the weather conditions in past years. The results will help you decide how hot, cold, wet, or windy it might be!

Date:

Astronomy

May. 10, 2013 Rise Set
Actual Time 6:33 AM EDT 8:11 PM EDT
Civil Twilight 6:06 AM EDT 8:37 PM EDT
Nautical Twilight 5:35 AM EDT 9:08 PM EDT
Astronomical Twilight 5:02 AM EDT 9:42 PM EDT
Moon 6:57 AM EDT (5/10) 8:57 PM EDT (5/10)
Length of Visible Light 14h 30m
Length of Day
13h 37m
New Moon, 0% of the Moon is Illuminated
May 10
New Moon
May 18
First Quarter
May 25
Full
May 31
Last Quarter
Jun 8
New

Hourly Weather History & Observations

Time (EDT) Temp. Heat Index Dew Point Humidity Pressure Visibility Wind Dir Wind Speed Gust Speed Precip Events Conditions
12:53 AM 71.6 °F - 60.8 °F 69% 30.13 in 10.0 mi SSW 6.9 mph - N/A   Clear
1:53 AM 70.0 °F - 62.1 °F 76% 30.12 in 10.0 mi SSW 8.1 mph - N/A   Clear
2:53 AM 70.0 °F - 59.0 °F 68% 30.12 in 10.0 mi SSW 5.8 mph - N/A   Clear
3:53 AM 66.2 °F - 60.8 °F 83% 30.11 in 10.0 mi SW 6.9 mph - N/A   Clear
4:53 AM 66.9 °F - 60.1 °F 79% 30.09 in 10.0 mi WSW 6.9 mph - N/A   Clear
5:53 AM 64.9 °F - 60.1 °F 84% 30.09 in 10.0 mi WSW 4.6 mph - N/A   Clear
6:53 AM 64.0 °F - 60.1 °F 87% 30.09 in 10.0 mi WSW 4.6 mph - N/A   Clear
7:53 AM 68.0 °F - 60.8 °F 78% 30.10 in 10.0 mi SW 5.8 mph - N/A   Clear
8:53 AM 71.1 °F - 62.1 °F 73% 30.10 in 10.0 mi SSW 3.5 mph - N/A   Clear
9:53 AM 75.0 °F - 61.0 °F 62% 30.11 in 10.0 mi Calm Calm - N/A   Clear
10:53 AM 78.1 °F - 61.0 °F 56% 30.10 in 10.0 mi SE 5.8 mph - N/A   Clear
11:53 AM 78.1 °F - 61.0 °F 56% 30.12 in 10.0 mi SSE 6.9 mph - N/A   Clear
12:53 PM 79.0 °F - 61.0 °F 54% 30.13 in 10.0 mi South 10.4 mph - N/A   Clear
1:53 PM 80.1 °F 81.1 °F 61.0 °F 52% 30.11 in 10.0 mi SSE 10.4 mph - N/A   Clear
2:53 PM 80.1 °F 81.1 °F 61.0 °F 52% 30.09 in 10.0 mi South 10.4 mph - N/A   Clear
3:53 PM 80.1 °F 81.7 °F 64.0 °F 58% 30.06 in 10.0 mi SE 10.4 mph - N/A   Clear
4:53 PM 78.1 °F - 66.9 °F 68% 30.04 in 10.0 mi SE 11.5 mph - N/A   Clear
5:53 PM 75.9 °F - 66.9 °F 74% 30.03 in 10.0 mi SE 9.2 mph - N/A   Clear
6:53 PM 75.0 °F - 68.0 °F 79% 30.02 in 10.0 mi SE 9.2 mph - N/A   Clear
7:53 PM 73.9 °F - 69.1 °F 85% 30.02 in 10.0 mi SE 6.9 mph - N/A   Clear
8:53 PM 73.0 °F - 69.1 °F 87% 30.03 in 10.0 mi SE 8.1 mph - N/A   Clear
9:53 PM 73.0 °F - 69.1 °F 87% 30.04 in 10.0 mi SSE 5.8 mph - N/A   Scattered Clouds
10:53 PM 73.0 °F - 69.1 °F 87% 30.05 in 10.0 mi SSE 6.9 mph - N/A   Clear
11:53 PM 73.0 °F - 69.1 °F 87% 30.05 in 10.0 mi Variable 5.8 mph - N/A   Clear